Regional Weather Roundup
Issued by NWS

Home | Current Version | Previous Version | Text Only | Print | Product List | Glossary Off
Versions: 1 2 3 4 5 6 7 8 9 10 11 12 13 14 15 16 17 18 19 20 21 22 23 24 25 26 27 28 29 30 31 32 33 34 35 36 37 38 39 40 41 42 43 44 45 46 47 48 49 50

540
ASUS45 KABQ 241801
RWRNM
NEW MEXICO REGIONAL WEATHER ROUNDUP
NATIONAL WEATHER SERVICE ALBUQUERQUE NM
1200 PM MDT MON JUL 24 2017

NOTE: "FAIR" MEANS FEW OR NO CLOUDS BELOW 12,000 FEET AGL WITH NO
       SIGNIFICANT WEATHER OR OBSTRUCTIONS TO VISION.

      THIS PRODUCT IS RELEASED AS TWO VERSIONS.  ONE VERSION NEAR
      THE TOP OF THE HOUR CONTAINING PRELIMINARY DATA FROM ALBUQUERQUE
      AND OTHER STATIONS.  A FINAL VERSION WITH ADDITIONAL DATA IS
      ISSUED ABOUT 10 MINUTES AFTER THE HOUR.

NMZ501-503-504-510>518-241900-
NORTHWEST PLATEAU/NORTHCENTRAL MOUNTAINS

CITY           SKY/WX    TMP DP  RH WIND       PRES   REMARKS
FARMINGTON     FAIR      81  54  39 S8        30.18F
6HR MIN TEMP:  65; 6HR MAX TEMP:  81;

LOS ALAMOS     FAIR      76  46  34 S7        30.31F
SANTA FE       FAIR      82  52  35 SW8       30.24F
6HR MIN TEMP:  55; 6HR MAX TEMP:  82;

TAOS           FAIR      79  46  31 CALM      30.31F
ANGEL FIRE     FAIR      72  48  42 S3        30.39F

$$
NMZ402-403-502-505>509-241900-
WESTCENTRAL MOUNTAINS/SOUTHWEST MOUNTAINS

CITY           SKY/WX    TMP DP  RH WIND       PRES   REMARKS
GALLUP         CLOUDY    73  62  68 N15       30.25S THUNDER
6HR MIN TEMP:  59; 6HR MAX TEMP:  75; 6HR PCP: TRACE;

GRANTS         FAIR      80  52  37 S12G22    30.26F
SILVER CITY    FAIR      72  64  76 E3        30.22S

$$
NMZ407-409-411-412-241900-
SOUTHERN DESERTS

CITY           SKY/WX    TMP DP  RH WIND       PRES   REMARKS
DEMING         FAIR      80  64  58 VRB3      30.12F
6HR MIN TEMP:  67; 6HR MAX TEMP:  81;

LAS CRUCES     FAIR      81  62  52 E5        30.15F
HOLLOMAN AFB   FAIR      84  63  49 CALM      30.13F
ALAMOGORDO     FAIR      81  63  54 NW5       30.13F
T OR C         CLOUDY    82  51  34 SE6       30.14F
6HR MIN TEMP:  68; 6HR MAX TEMP:  85;


$$
NMZ519>523-241900-
CENTRAL VALLEYS/CENTRAL HIGHLANDS

CITY           SKY/WX    TMP DP  RH WIND       PRES   REMARKS
ALBUQUERQUE    PTSUNNY   82  56  40 VRB3      30.19F
6HR MIN TEMP:  67; 6HR MAX TEMP:  82;

DOUBLE EAGLE     N/A     81  54  39 VRB5      30.23F
MORIARTY ARPT  FAIR      82  52  34 SE6       30.25F
6HR MIN TEMP:  56; 6HR MAX TEMP:  82;

CLINES CORNERS FAIR      81  50  33 VRB7      30.30S
6HR MIN TEMP:  56; 6HR MAX TEMP:  81;

BELEN          NOT AVBL
SOCORRO        FAIR      79  58  48 S3        30.17F
6HR MIN TEMP:  66; 6HR MAX TEMP:  79;


$$
NMZ524>526-539-540-241900-
SOUTHCENTRAL MOUNTAINS

CITY           SKY/WX    TMP DP  RH WIND       PRES   REMARKS
RUIDOSO        FAIR      75  55  50 S10G16    30.31S

$$
NMZ527>531-241900-
NORTHEAST HIGHLANDS/NORTHEAST PLAINS

CITY           SKY/WX    TMP DP  RH WIND       PRES   REMARKS
LAS VEGAS      FAIR      77  51  40 S7        30.28F
6HR MIN TEMP:  52; 6HR MAX TEMP:  79;

RATON          FAIR      78  52  40 VRB5      30.22F
6HR MIN TEMP:  54; 6HR MAX TEMP:  79;

CLAYTON        FAIR      85  56  37 S8        30.14F
6HR MIN TEMP:  60; 6HR MAX TEMP:  86;


$$
NMZ532>537-241900-
EASTCENTRAL PLAINS

CITY           SKY/WX    TMP DP  RH WIND       PRES   REMARKS
SANTA ROSA     FAIR      86  54  33 SE10      30.14S
TUCUMCARI      PTSUNNY   89  59  36 SW5       30.06F
6HR MIN TEMP:  66; 6HR MAX TEMP:  92;

CANNON AFB     FAIR      87  61  40 S8        30.12F
6HR MIN TEMP:  68; 6HR MAX TEMP:  87;

CLOVIS AIRPORT PTSUNNY   85  61  44 VRB6      30.12F

$$
NMZ028-029-538-241900-
SOUTHEAST PLAINS

CITY           SKY/WX    TMP DP  RH WIND       PRES   REMARKS
ROSWELL        FAIR      89  60  37 SE7       30.07F
6HR MIN TEMP:  71; 6HR MAX TEMP:  89;

ARTESIA        FAIR      88  63  42 SE9G15    30.06F
CARLSBAD       FAIR      89  62  40 VRB3      30.04F
6HR MIN TEMP:  67; 6HR MAX TEMP:  89;

HOBBS          MOSUNNY   88  57  35 S5        30.10F


$$




USA.gov is the U.S. government's official web portal to all federal, state and local government web resources and services.